UAL737 KGSO-KATL

Flight info

Callsign UAL737
Flight time N/A
Altitude 36000
Route TRI9 CARWN LEAVI OZZZI2
Aircraft B738/M-SDE2E3FGHIRWXY/LB1

Departure

Time 2026-04-28 22:48
Airport Piedmont Triad International Airport (KGSO)

Arrival

Time N/A
Airport Hartsfield Jackson Atlanta International Airport (KATL)
Time Latitude Longitude Altitude Speed Heading
2026-04-28 22:30 36.10472 -79.93336 899 ft 0 kts 294°
2026-04-28 22:43 36.10466 -79.93319 899 ft 2 kts 294°
2026-04-28 22:44 36.10459 -79.93300 899 ft 2 kts 294°
2026-04-28 22:44 36.10452 -79.93281 901 ft 2 kts 294°
2026-04-28 22:44 36.10448 -79.93268 900 ft 0 kts 294°
2026-04-28 22:45 36.10449 -79.93269 900 ft 1 kts 301°
2026-04-28 22:45 36.10457 -79.93269 899 ft 1 kts 13°
2026-04-28 22:45 36.10463 -79.93250 901 ft 10 kts 72°
2026-04-28 22:45 36.10544 -79.93098 899 ft 24 kts 45°
2026-04-28 22:46 36.10668 -79.92938 897 ft 27 kts 46°
2026-04-28 22:46 36.10825 -79.92856 895 ft 27 kts 329°
2026-04-28 22:46 36.10946 -79.93032 891 ft 28 kts 313°
2026-04-28 22:46 36.11100 -79.93214 883 ft 33 kts 317°
2026-04-28 22:47 36.11279 -79.93423 873 ft 37 kts 316°
2026-04-28 22:47 36.11470 -79.93651 861 ft 34 kts 317°
2026-04-28 22:47 36.11555 -79.93816 868 ft 9 kts 244°
2026-04-28 22:47 36.11539 -79.93840 868 ft 3 kts 229°
2026-04-28 22:48 36.11510 -79.93881 869 ft 25 kts 228°
2026-04-28 22:48 36.11151 -79.94362 881 ft 124 kts 225°
2026-04-28 22:48 36.10352 -79.95361 930 ft 200 kts 225°
2026-04-28 22:48 36.09386 -79.96546 2203 ft 190 kts 225°
2026-04-28 22:49 36.08404 -79.97763 3294 ft 202 kts 226°
2026-04-28 22:49 36.07375 -79.99077 3906 ft 226 kts 226°
2026-04-28 22:49 36.06238 -80.00529 4363 ft 241 kts 226°
2026-04-28 22:49 36.05057 -80.02028 5096 ft 245 kts 226°
2026-04-28 22:50 36.03868 -80.03551 5818 ft 248 kts 226°
2026-04-28 22:50 36.02656 -80.05083 6507 ft 250 kts 226°
2026-04-28 22:50 36.01428 -80.06622 7185 ft 253 kts 225°
2026-04-28 22:50 36.00190 -80.08180 7862 ft 256 kts 226°
2026-04-28 22:51 35.98937 -80.09758 8514 ft 258 kts 226°
2026-04-28 22:51 35.97676 -80.11350 9159 ft 261 kts 226°
2026-04-28 22:51 35.96403 -80.12962 9777 ft 264 kts 226°
2026-04-28 22:51 35.95117 -80.14581 9979 ft 265 kts 226°
2026-04-28 22:52 35.93825 -80.16212 10000 ft 267 kts 226°
2026-04-28 22:52 35.92531 -80.17849 9992 ft 265 kts 226°
2026-04-28 22:52 35.91236 -80.19465 9998 ft 264 kts 225°
2026-04-28 22:52 35.89944 -80.21079 9996 ft 264 kts 226°
2026-04-28 22:53 35.88655 -80.22695 10009 ft 264 kts 225°
2026-04-28 22:53 35.87121 -80.23893 10001 ft 265 kts 195°
2026-04-28 22:53 35.85300 -80.23881 10013 ft 265 kts 165°
2026-04-28 22:53 35.83569 -80.23101 10007 ft 266 kts 166°
2026-04-28 22:54 35.81747 -80.22675 10009 ft 267 kts 172°
2026-04-28 22:54 35.79933 -80.22347 9999 ft 267 kts 172°
2026-04-28 22:54 35.78093 -80.21999 10031 ft 268 kts 171°
2026-04-28 22:54 35.76203 -80.21612 10201 ft 283 kts 171°
2026-04-28 22:55 35.74223 -80.21183 10596 ft 292 kts 170°
2026-04-28 22:55 35.72212 -80.20728 11129 ft 295 kts 169°
2026-04-28 22:55 35.70197 -80.20260 11705 ft 295 kts 169°
2026-04-28 22:55 35.68165 -80.19786 12196 ft 298 kts 169°
2026-04-28 22:56 35.66112 -80.19316 12671 ft 301 kts 172°
2026-04-28 22:56 35.64033 -80.19487 13138 ft 303 kts 197°
2026-04-28 22:56 35.62211 -80.20749 13632 ft 303 kts 223°
2026-04-28 22:56 35.60974 -80.22835 14110 ft 305 kts 245°
2026-04-28 22:57 35.60143 -80.25242 14578 ft 307 kts 248°
2026-04-28 22:57 35.59361 -80.27693 15008 ft 310 kts 249°
2026-04-28 22:57 35.58574 -80.30159 15260 ft 307 kts 251°
2026-04-28 22:57 35.57811 -80.32525 15924 ft 300 kts 251°
2026-04-28 22:58 35.57038 -80.34906 16352 ft 301 kts 251°
2026-04-28 22:58 35.56251 -80.37306 16731 ft 304 kts 251°
2026-04-28 22:58 35.55453 -80.39720 17138 ft 305 kts 251°
2026-04-28 22:58 35.54651 -80.42141 17543 ft 307 kts 251°
2026-04-28 22:59 35.53896 -80.44589 17946 ft 307 kts 254°
2026-04-28 22:59 35.53210 -80.47073 18327 ft 308 kts 255°
2026-04-28 22:59 35.52540 -80.49579 18660 ft 309 kts 255°
2026-04-28 22:59 35.51874 -80.52086 19008 ft 309 kts 256°
2026-04-28 23:00 35.51205 -80.54592 19372 ft 309 kts 256°
2026-04-28 23:00 35.50533 -80.57095 19719 ft 309 kts 256°
2026-04-28 23:00 35.49858 -80.59601 20049 ft 309 kts 256°
2026-04-28 23:00 35.49179 -80.62113 20370 ft 310 kts 256°
2026-04-28 23:01 35.48495 -80.64634 20685 ft 311 kts 256°
2026-04-28 23:01 35.47811 -80.67150 20996 ft 311 kts 256°
2026-04-28 23:01 35.47134 -80.69636 21300 ft 312 kts 256°
2026-04-28 23:01 35.46445 -80.72162 21589 ft 312 kts 256°
2026-04-28 23:02 35.45980 -80.73868 21787 ft 312 kts 256°
2026-04-28 23:02 35.45063 -80.77220 22154 ft 314 kts 256°
2026-04-28 23:02 35.44370 -80.79755 22412 ft 314 kts 256°
2026-04-28 23:02 35.43672 -80.82302 22674 ft 315 kts 256°
2026-04-28 23:03 35.42975 -80.84843 22930 ft 316 kts 256°
2026-04-28 23:03 35.42272 -80.87405 23157 ft 317 kts 256°
2026-04-28 23:03 35.41797 -80.89134 23328 ft 317 kts 256°
2026-04-28 23:03 35.41092 -80.91699 23559 ft 318 kts 256°
2026-04-28 23:04 35.40392 -80.94241 23766 ft 319 kts 257°
2026-04-28 23:04 35.38970 -80.99400 24108 ft 321 kts 256°
2026-04-28 23:04 35.38255 -81.01990 24271 ft 322 kts 257°
2026-04-28 23:05 35.37538 -81.04585 24444 ft 322 kts 257°
2026-04-28 23:05 35.36817 -81.07194 24608 ft 323 kts 257°
2026-04-28 23:05 35.36096 -81.09797 24763 ft 324 kts 256°
2026-04-28 23:05 35.35371 -81.12416 24915 ft 325 kts 257°
2026-04-28 23:06 35.34644 -81.15036 25076 ft 325 kts 256°
2026-04-28 23:06 35.33915 -81.17663 25217 ft 326 kts 256°
2026-04-28 23:06 35.33183 -81.20296 25361 ft 327 kts 256°
2026-04-28 23:06 35.32449 -81.22937 25490 ft 328 kts 256°
2026-04-28 23:07 35.31713 -81.25581 25631 ft 328 kts 256°
2026-04-28 23:07 35.30984 -81.28197 25766 ft 329 kts 256°
2026-04-28 23:07 35.30234 -81.30884 25902 ft 330 kts 256°
2026-04-28 23:07 35.29501 -81.33510 26025 ft 331 kts 256°
2026-04-28 23:08 35.28755 -81.36178 26108 ft 332 kts 256°
2026-04-28 23:08 35.27996 -81.38892 26223 ft 333 kts 256°
2026-04-28 23:08 35.27246 -81.41572 26362 ft 333 kts 256°
2026-04-28 23:08 35.26495 -81.44248 26518 ft 332 kts 256°
2026-04-28 23:09 35.25755 -81.46883 26656 ft 332 kts 256°
2026-04-28 23:09 35.24994 -81.49593 26788 ft 332 kts 256°
2026-04-28 23:09 35.24255 -81.52221 26945 ft 331 kts 256°
2026-04-28 23:09 35.23505 -81.54885 27097 ft 331 kts 256°
2026-04-28 23:10 35.22755 -81.57549 27194 ft 332 kts 256°
2026-04-28 23:10 35.22000 -81.60233 27229 ft 335 kts 256°
2026-04-28 23:10 35.21239 -81.62932 27281 ft 337 kts 256°
2026-04-28 23:10 35.20472 -81.65646 27381 ft 337 kts 256°
2026-04-28 23:11 35.19708 -81.68345 27534 ft 335 kts 256°
2026-04-28 23:11 35.18945 -81.71037 27677 ft 334 kts 256°
2026-04-28 23:11 35.18185 -81.73720 27789 ft 334 kts 256°
2026-04-28 23:11 35.17424 -81.76405 27906 ft 334 kts 256°
2026-04-28 23:12 35.16663 -81.79083 28050 ft 333 kts 256°
2026-04-28 23:12 35.15904 -81.81756 28181 ft 333 kts 256°
2026-04-28 23:12 35.15145 -81.84422 28334 ft 332 kts 256°
2026-04-28 23:12 35.14388 -81.87083 28474 ft 331 kts 256°
2026-04-28 23:13 35.13631 -81.89740 28619 ft 330 kts 256°
2026-04-28 23:13 35.12875 -81.92390 28766 ft 329 kts 256°
2026-04-28 23:13 35.12124 -81.95022 28924 ft 328 kts 256°
2026-04-28 23:13 35.11373 -81.97648 29082 ft 327 kts 256°
2026-04-28 23:14 35.10625 -82.00266 29228 ft 326 kts 256°
2026-04-28 23:14 35.09876 -82.02882 29365 ft 326 kts 256°
2026-04-28 23:14 35.09130 -82.05487 29523 ft 325 kts 256°
2026-04-28 23:14 35.08384 -82.08088 29659 ft 324 kts 256°
2026-04-28 23:15 35.07640 -82.10681 29779 ft 324 kts 256°
2026-04-28 23:15 35.06896 -82.13269 29929 ft 323 kts 256°
2026-04-28 23:15 35.06164 -82.15817 30075 ft 322 kts 256°
2026-04-28 23:15 35.05421 -82.18398 30203 ft 322 kts 256°
2026-04-28 23:16 35.04679 -82.20974 30318 ft 321 kts 256°
2026-04-28 23:16 35.03940 -82.23539 30440 ft 320 kts 256°
2026-04-28 23:16 35.03203 -82.26095 30563 ft 319 kts 256°
2026-04-28 23:16 35.02465 -82.28649 30658 ft 319 kts 256°
2026-04-28 23:17 35.01711 -82.31194 30769 ft 320 kts 253°
2026-04-28 23:17 35.00687 -82.33620 30881 ft 323 kts 247°
2026-04-28 23:17 34.99542 -82.35989 30994 ft 324 kts 246°
2026-04-28 23:17 34.98381 -82.38342 31100 ft 323 kts 246°
2026-04-28 23:18 34.97228 -82.40686 31202 ft 323 kts 246°
2026-04-28 23:18 34.96081 -82.43036 31324 ft 322 kts 246°
2026-04-28 23:18 34.94944 -82.45381 31428 ft 321 kts 246°
2026-04-28 23:18 34.93811 -82.47725 31530 ft 320 kts 246°
2026-04-28 23:19 34.91301 -82.52231 31556 ft 318 kts 241°
2026-04-28 23:19 34.90012 -82.54300 31402 ft 302 kts 240°
2026-04-28 23:19 34.88764 -82.56284 31197 ft 288 kts 241°
2026-04-28 23:20 34.87576 -82.58181 30950 ft 276 kts 242°
2026-04-28 23:20 34.86434 -82.60018 30666 ft 267 kts 242°
2026-04-28 23:20 34.85336 -82.61793 30364 ft 260 kts 242°
2026-04-28 23:20 34.84263 -82.63535 29999 ft 254 kts 243°
2026-04-28 23:21 34.83218 -82.65235 29602 ft 248 kts 242°
2026-04-28 23:21 34.82195 -82.66901 29192 ft 244 kts 243°
2026-04-28 23:21 34.81188 -82.68541 28790 ft 240 kts 243°
2026-04-28 23:21 34.80195 -82.70161 28368 ft 237 kts 242°
2026-04-28 23:22 34.79214 -82.71759 27948 ft 234 kts 242°
2026-04-28 23:22 34.78245 -82.73338 27531 ft 232 kts 242°
2026-04-28 23:22 34.77282 -82.74907 27122 ft 230 kts 242°
2026-04-28 23:22 34.76327 -82.76462 26716 ft 229 kts 242°
2026-04-28 23:23 34.75391 -82.77987 26317 ft 227 kts 242°
2026-04-28 23:23 34.74448 -82.79520 25919 ft 226 kts 242°
2026-04-28 23:23 34.73508 -82.81048 25545 ft 225 kts 242°
2026-04-28 23:23 34.72572 -82.82570 25155 ft 224 kts 242°
2026-04-28 23:24 34.71640 -82.84083 24769 ft 223 kts 241°
2026-04-28 23:24 34.70713 -82.85587 24401 ft 222 kts 241°
2026-04-28 23:24 34.69788 -82.87088 24036 ft 221 kts 241°
2026-04-28 23:24 34.68871 -82.88576 23668 ft 220 kts 241°
2026-04-28 23:25 34.67950 -82.90069 23231 ft 220 kts 241°
2026-04-28 23:25 34.67035 -82.91552 22801 ft 219 kts 241°
2026-04-28 23:25 34.66122 -82.93031 22387 ft 218 kts 240°
2026-04-28 23:25 34.65213 -82.94502 21984 ft 217 kts 240°
2026-04-28 23:26 34.64307 -82.95967 21581 ft 216 kts 240°
2026-04-28 23:26 34.63405 -82.97426 21199 ft 216 kts 240°
2026-04-28 23:26 34.62507 -82.98879 20815 ft 215 kts 240°
2026-04-28 23:26 34.61612 -83.00325 20439 ft 214 kts 240°
2026-04-28 23:27 34.60719 -83.01767 20075 ft 213 kts 240°
2026-04-28 23:27 34.59831 -83.03200 19701 ft 212 kts 240°
2026-04-28 23:27 34.58944 -83.04632 19348 ft 212 kts 240°
2026-04-28 23:27 34.58061 -83.06057 18999 ft 211 kts 240°
2026-04-28 23:28 34.57181 -83.07477 18641 ft 210 kts 240°
2026-04-28 23:28 34.56301 -83.08894 18291 ft 210 kts 240°
2026-04-28 23:28 34.55425 -83.10306 17904 ft 209 kts 239°
2026-04-28 23:28 34.54553 -83.11712 17519 ft 208 kts 239°
2026-04-28 23:29 34.53680 -83.13118 17138 ft 208 kts 239°
2026-04-28 23:29 34.52812 -83.14514 16773 ft 207 kts 239°
2026-04-28 23:29 34.51946 -83.15908 16416 ft 207 kts 239°
2026-04-28 23:29 34.51094 -83.17278 16062 ft 206 kts 238°
2026-04-28 23:30 34.50233 -83.18661 15709 ft 205 kts 238°
2026-04-28 23:30 34.49375 -83.20041 15359 ft 205 kts 238°
2026-04-28 23:30 34.48518 -83.21417 15017 ft 204 kts 238°
2026-04-28 23:30 34.47665 -83.22787 14682 ft 203 kts 237°
2026-04-28 23:31 34.46814 -83.24153 14346 ft 203 kts 237°
2026-04-28 23:31 34.45965 -83.25516 14016 ft 202 kts 237°
2026-04-28 23:31 34.45117 -83.26875 13664 ft 202 kts 237°
2026-04-28 23:31 34.44273 -83.28228 13311 ft 201 kts 237°
2026-04-28 23:32 34.43435 -83.29572 12964 ft 200 kts 237°
2026-04-28 23:32 34.42599 -83.30911 12626 ft 198 kts 236°
2026-04-28 23:32 34.41770 -83.32238 12288 ft 197 kts 236°
2026-04-28 23:32 34.40929 -83.33587 12206 ft 212 kts 236°
2026-04-28 23:33 34.39977 -83.35121 12206 ft 244 kts 236°
2026-04-28 23:33 34.38916 -83.36822 12170 ft 256 kts 235°
2026-04-28 23:33 34.37832 -83.38555 12148 ft 259 kts 235°
2026-04-28 23:33 34.36745 -83.40287 12137 ft 258 kts 235°
2026-04-28 23:34 34.35660 -83.42016 12134 ft 257 kts 235°
2026-04-28 23:34 34.34579 -83.43740 12133 ft 258 kts 235°
2026-04-28 23:34 34.33495 -83.45468 12141 ft 258 kts 235°
2026-04-28 23:34 34.32412 -83.47194 12143 ft 258 kts 235°
2026-04-28 23:35 34.31344 -83.48897 12143 ft 258 kts 235°
2026-04-28 23:35 34.30245 -83.50647 12149 ft 257 kts 235°
2026-04-28 23:35 34.29179 -83.52345 12149 ft 257 kts 235°
2026-04-28 23:35 34.28095 -83.54070 12154 ft 257 kts 235°
2026-04-28 23:36 34.27011 -83.55794 12156 ft 258 kts 235°
2026-04-28 23:36 34.25925 -83.57521 12150 ft 258 kts 235°
2026-04-28 23:36 34.24841 -83.59245 12156 ft 258 kts 235°
2026-04-28 23:36 34.23756 -83.60968 12150 ft 258 kts 235°
2026-04-28 23:37 34.22671 -83.62692 12152 ft 258 kts 235°
2026-04-28 23:37 34.21584 -83.64416 12158 ft 257 kts 235°
2026-04-28 23:37 34.20501 -83.66135 12153 ft 257 kts 235°
2026-04-28 23:37 34.19415 -83.67858 12150 ft 258 kts 235°
2026-04-28 23:38 34.18330 -83.69578 12153 ft 257 kts 235°
2026-04-28 23:38 34.17244 -83.71298 12151 ft 257 kts 235°
2026-04-28 23:38 34.16160 -83.73016 12164 ft 257 kts 235°
2026-04-28 23:38 34.15074 -83.74735 12164 ft 257 kts 235°
2026-04-28 23:39 34.13986 -83.76457 12164 ft 257 kts 235°
2026-04-28 23:39 34.12903 -83.78171 12165 ft 257 kts 234°
2026-04-28 23:39 34.11817 -83.79886 12164 ft 257 kts 234°
2026-04-28 23:39 34.10731 -83.81600 12161 ft 257 kts 234°
2026-04-28 23:40 34.09656 -83.83291 12143 ft 257 kts 233°
2026-04-28 23:40 34.08405 -83.84843 12155 ft 259 kts 225°
2026-04-28 23:40 34.07059 -83.86261 12065 ft 255 kts 223°
2026-04-28 23:40 34.05701 -83.87667 11651 ft 259 kts 223°
2026-04-28 23:41 34.04341 -83.89088 11258 ft 257 kts 223°
2026-04-28 23:41 34.03024 -83.90478 10856 ft 247 kts 224°
2026-04-28 23:41 34.01850 -83.91728 10483 ft 239 kts 224°
2026-04-28 23:41 34.00747 -83.92907 10118 ft 234 kts 224°
2026-04-28 23:42 33.99542 -83.94197 9704 ft 234 kts 224°
2026-04-28 23:42 33.98335 -83.95488 9285 ft 234 kts 224°
2026-04-28 23:42 33.96954 -83.96543 9168 ft 238 kts 202°
2026-04-28 23:42 33.95308 -83.96813 9160 ft 242 kts 182°
2026-04-28 23:43 33.93625 -83.96733 9160 ft 242 kts 181°
2026-04-28 23:43 33.91962 -83.96639 9141 ft 234 kts 181°
2026-04-28 23:43 33.90366 -83.96555 9146 ft 228 kts 181°
2026-04-28 23:43 33.88770 -83.96481 9152 ft 230 kts 181°
2026-04-28 23:44 33.87169 -83.96409 9155 ft 231 kts 181°
2026-04-28 23:44 33.85561 -83.96339 9152 ft 231 kts 181°
2026-04-28 23:44 33.83955 -83.96270 9150 ft 231 kts 181°
2026-04-28 23:44 33.82333 -83.96202 8756 ft 240 kts 181°
2026-04-28 23:45 33.80637 -83.96132 8104 ft 245 kts 181°
2026-04-28 23:45 33.78930 -83.96060 7440 ft 246 kts 181°
2026-04-28 23:45 33.77219 -83.95988 6807 ft 246 kts 182°
2026-04-28 23:45 33.75511 -83.95972 6139 ft 243 kts 191°
2026-04-28 23:46 33.73940 -83.96598 5520 ft 232 kts 207°
2026-04-28 23:46 33.72525 -83.97319 5269 ft 210 kts 207°
2026-04-28 23:46 33.71199 -83.97987 5149 ft 206 kts 207°
2026-04-28 23:46 33.69870 -83.98654 4658 ft 209 kts 207°
2026-04-28 23:47 33.68543 -83.99316 4406 ft 205 kts 206°
2026-04-28 23:47 33.67243 -83.99964 4288 ft 205 kts 206°
2026-04-28 23:47 33.65950 -84.00697 4160 ft 201 kts 220°
2026-04-28 23:47 33.65132 -84.01976 4132 ft 197 kts 248°
2026-04-28 23:48 33.64880 -84.03581 4133 ft 197 kts 266°
2026-04-28 23:48 33.64875 -84.05223 4133 ft 195 kts 269°
2026-04-28 23:48 33.64891 -84.06818 4129 ft 183 kts 269°
2026-04-28 23:48 33.64903 -84.08288 4119 ft 170 kts 269°
2026-04-28 23:49 33.64910 -84.09672 4093 ft 168 kts 269°
2026-04-28 23:49 33.64916 -84.11069 4122 ft 168 kts 268°
2026-04-28 23:49 33.64920 -84.12479 4127 ft 169 kts 268°
2026-04-28 23:49 33.64925 -84.13890 4076 ft 169 kts 268°
2026-04-28 23:50 33.64928 -84.14838 4122 ft 168 kts 268°
2026-04-28 23:50 33.64931 -84.16246 4123 ft 169 kts 268°
2026-04-28 23:50 33.64930 -84.18121 3862 ft 174 kts 268°
2026-04-28 23:50 33.64915 -84.19788 3067 ft 207 kts 268°
2026-04-28 23:51 33.64907 -84.21497 2764 ft 205 kts 268°
2026-04-28 23:51 33.64888 -84.23224 2436 ft 206 kts 268°
2026-04-28 23:51 33.64893 -84.24372 2399 ft 198 kts 270°
2026-04-28 23:51 33.64943 -84.25986 2390 ft 190 kts 270°
2026-04-28 23:52 33.64982 -84.27550 2372 ft 185 kts 270°
2026-04-28 23:52 33.65010 -84.29074 2522 ft 183 kts 269°
2026-04-28 23:52 33.65045 -84.30580 2605 ft 180 kts 270°
2026-04-28 23:52 33.65101 -84.32089 2607 ft 183 kts 271°
2026-04-28 23:53 33.65179 -84.33604 2632 ft 184 kts 271°
2026-04-28 23:53 33.65204 -84.35182 2442 ft 191 kts 267°
2026-04-28 23:53 33.65156 -84.36811 2055 ft 200 kts 264°
2026-04-28 23:53 33.65042 -84.38491 1664 ft 205 kts 265°
2026-04-28 23:54 33.64948 -84.40210 1302 ft 207 kts 268°
2026-04-28 23:54 33.64951 -84.41935 1022 ft 200 kts 268°
2026-04-28 23:54 33.64924 -84.43369 1085 ft 189 kts 269°
2026-04-28 23:54 33.64952 -84.44629 1928 ft 131 kts 270°
2026-04-28 23:55 33.65038 -84.45583 2523 ft 106 kts 276°
2026-04-28 23:55 33.65347 -84.46373 2914 ft 109 kts 313°
2026-04-28 23:55 33.66138 -84.46697 3094 ft 136 kts
2026-04-28 23:55 33.67046 -84.46230 3316 ft 150 kts 33°
2026-04-28 23:56 33.67674 -84.45237 3535 ft 160 kts 73°
2026-04-28 23:56 33.67708 -84.43782 3299 ft 189 kts 96°
2026-04-28 23:56 33.67613 -84.42252 3156 ft 171 kts 92°
2026-04-28 23:56 33.67975 -84.41146 3049 ft 142 kts 43°
2026-04-28 23:57 33.68905 -84.40724 2428 ft 146 kts 350°
2026-04-28 23:57 33.69653 -84.41347 2031 ft 127 kts 292°
2026-04-28 23:57 33.69760 -84.42293 1791 ft 106 kts 256°
2026-04-28 23:57 33.69389 -84.42993 1447 ft 98 kts 217°
2026-04-28 23:58 33.68639 -84.43439 1735 ft 132 kts 202°
2026-04-28 23:58 33.67833 -84.43923 2471 ft 124 kts 211°
2026-04-28 23:58 33.67098 -84.44421 3095 ft 120 kts 212°
2026-04-28 23:58 33.66379 -84.44910 3641 ft 118 kts 212°
2026-04-28 23:59 33.65639 -84.45406 4015 ft 132 kts 213°
2026-04-28 23:59 33.64766 -84.46000 4039 ft 160 kts 213°
2026-04-28 23:59 33.63720 -84.46730 4018 ft 189 kts 213°
2026-04-28 23:59 33.62572 -84.47553 4094 ft 197 kts 213°
2026-04-29 00:00 33.61376 -84.48404 4136 ft 201 kts 213°
2026-04-29 00:00 33.60162 -84.49274 4127 ft 205 kts 213°
2026-04-29 00:00 33.58925 -84.50152 4131 ft 207 kts 214°
2026-04-29 00:00 33.57505 -84.50510 4126 ft 220 kts 175°
2026-04-29 00:01 33.56158 -84.49584 4131 ft 235 kts 135°
2026-04-29 00:01 33.55557 -84.47753 4136 ft 245 kts 95°
2026-04-29 00:01 33.55940 -84.45821 4143 ft 246 kts 65°
2026-04-29 00:01 33.56676 -84.43942 4140 ft 246 kts 64°
2026-04-29 00:02 33.57398 -84.42086 4134 ft 245 kts 65°
2026-04-29 00:02 33.58120 -84.40222 4132 ft 246 kts 66°
2026-04-29 00:02 33.58360 -84.38236 4124 ft 242 kts 103°
2026-04-29 00:02 33.57605 -84.36504 4139 ft 233 kts 134°
2026-04-29 00:03 33.56550 -84.35018 4134 ft 235 kts 134°
2026-04-29 00:03 33.55494 -84.33517 4125 ft 235 kts 134°
2026-04-29 00:03 33.54440 -84.32022 4126 ft 235 kts 134°
2026-04-29 00:03 33.53387 -84.30538 4148 ft 233 kts 131°
2026-04-29 00:04 33.52280 -84.29125 4088 ft 232 kts 134°
2026-04-29 00:04 33.51163 -84.27736 4037 ft 231 kts 134°
2026-04-29 00:04 33.50250 -84.26163 3999 ft 230 kts 116°
2026-04-29 00:04 33.49812 -84.24334 4003 ft 229 kts 97°
2026-04-29 00:05 33.49890 -84.22439 4005 ft 228 kts 78°
2026-04-29 00:05 33.50436 -84.20659 4019 ft 227 kts 65°
2026-04-29 00:05 33.51104 -84.18940 4007 ft 228 kts 64°
2026-04-29 00:05 33.51779 -84.17224 4009 ft 227 kts 64°
2026-04-29 00:06 33.52455 -84.15514 4009 ft 227 kts 64°
2026-04-29 00:06 33.53133 -84.13806 4007 ft 227 kts 64°
2026-04-29 00:06 33.53762 -84.12219 3976 ft 188 kts 64°